owner,sensor,date,latitude,longitude,vertical_datum,sea_water_temperature,qcFlag 
NERRS,ioos:station:NOAA.NERRS:rkblhwq:1,2019-11-05T14:45:00Z,26.0257,-81.7332,0.0,28.3,11111222 
NERRS,ioos:station:NOAA.NERRS:rkblhwq:1,2019-11-05T15:45:00Z,26.0257,-81.7332,0.0,28.4,11111222 
NERRS,ioos:station:NOAA.NERRS:rkblhwq:1,2019-11-05T16:45:00Z,26.0257,-81.7332,0.0,28.3,11111222 
NERRS,ioos:station:NOAA.NERRS:rkblhwq:1,2019-11-05T17:45:00Z,26.0257,-81.7332,0.0,28.4,11111222 
NERRS,ioos:station:NOAA.NERRS:rkblhwq:1,2019-11-05T18:45:00Z,26.0257,-81.7332,0.0,28.7,11111222 
NERRS,ioos:station:NOAA.NERRS:rkblhwq:1,2019-11-05T19:45:00Z,26.0257,-81.7332,0.0,28.9,11111222 
NERRS,ioos:station:NOAA.NERRS:rkblhwq:1,2019-11-05T20:45:00Z,26.0257,-81.7332,0.0,29.0,11111222 
NERRS,ioos:station:NOAA.NERRS:rkblhwq:1,2019-11-05T21:45:00Z,26.0257,-81.7332,0.0,29.1,11111222 
NERRS,ioos:station:NOAA.NERRS:rkblhwq:1,2019-11-05T22:45:00Z,26.0257,-81.7332,0.0,29.0,11111222 
NERRS,ioos:station:NOAA.NERRS:rkblhwq:1,2019-11-05T23:45:00Z,26.0257,-81.7332,0.0,28.9,11111222 
NERRS,ioos:station:NOAA.NERRS:rkblhwq:1,2019-11-06T00:45:00Z,26.0257,-81.7332,0.0,28.7,11111222 
NERRS,ioos:station:NOAA.NERRS:rkblhwq:1,2019-11-06T01:45:00Z,26.0257,-81.7332,0.0,28.8,11111222 
NERRS,ioos:station:NOAA.NERRS:rkblhwq:1,2019-11-06T02:45:00Z,26.0257,-81.7332,0.0,28.7,11111222 
NERRS,ioos:station:NOAA.NERRS:rkblhwq:1,2019-11-06T03:45:00Z,26.0257,-81.7332,0.0,28.8,11111222 
NERRS,ioos:station:NOAA.NERRS:rkblhwq:1,2019-11-06T04:45:00Z,26.0257,-81.7332,0.0,28.6,11111222 
NERRS,ioos:station:NOAA.NERRS:rkblhwq:1,2019-11-06T05:45:00Z,26.0257,-81.7332,0.0,28.7,11111222 
NERRS,ioos:station:NOAA.NERRS:rkblhwq:1,2019-11-06T06:45:00Z,26.0257,-81.7332,0.0,28.5,11111222 
NERRS,ioos:station:NOAA.NERRS:rkblhwq:1,2019-11-06T07:45:00Z,26.0257,-81.7332,0.0,28.5,11111222 
NERRS,ioos:station:NOAA.NERRS:rkblhwq:1,2019-11-06T08:45:00Z,26.0257,-81.7332,0.0,28.2,11111222 
NERRS,ioos:station:NOAA.NERRS:rkblhwq:1,2019-11-06T09:45:00Z,26.0257,-81.7332,0.0,28.3,11111222 
NERRS,ioos:station:NOAA.NERRS:rkblhwq:1,2019-11-06T10:45:00Z,26.0257,-81.7332,0.0,28.1,11111222 
NERRS,ioos:station:NOAA.NERRS:rkblhwq:1,2019-11-06T11:45:00Z,26.0257,-81.7332,0.0,27.9,11111222 
NERRS,ioos:station:NOAA.NERRS:rkblhwq:1,2019-11-06T12:45:00Z,26.0257,-81.7332,0.0,28.0,11111222 
NERRS,ioos:station:NOAA.NERRS:rkblhwq:1,2019-11-06T13:45:00Z,26.0257,-81.7332,0.0,28.0,11111222 
NERRS,ioos:station:NOAA.NERRS:rkblhwq:1,2019-11-06T14:45:00Z,26.0257,-81.7332,0.0,28.1,11111222 
NERRS,ioos:station:NOAA.NERRS:rkblhwq:1,2019-11-06T15:45:00Z,26.0257,-81.7332,0.0,28.1,11111222 
NERRS,ioos:station:NOAA.NERRS:rkblhwq:1,2019-11-06T16:45:00Z,26.0257,-81.7332,0.0,28.2,11111222 
NERRS,ioos:station:NOAA.NERRS:rkblhwq:1,2019-11-06T17:45:00Z,26.0257,-81.7332,0.0,28.5,11111222 
NERRS,ioos:station:NOAA.NERRS:rkblhwq:1,2019-11-06T18:45:00Z,26.0257,-81.7332,0.0,29.0,11111222 
NERRS,ioos:station:NOAA.NERRS:rkblhwq:1,2019-11-06T19:45:00Z,26.0257,-81.7332,0.0,29.3,11111222 
NERRS,ioos:station:NOAA.NERRS:rkblhwq:1,2019-11-06T20:45:00Z,26.0257,-81.7332,0.0,29.4,11111222 
NERRS,ioos:station:NOAA.NERRS:rkblhwq:1,2019-11-06T21:45:00Z,26.0257,-81.7332,0.0,29.3,11111222 
NERRS,ioos:station:NOAA.NERRS:rkblhwq:1,2019-11-06T22:45:00Z,26.0257,-81.7332,0.0,29.1,11111222 
NERRS,ioos:station:NOAA.NERRS:rkblhwq:1,2019-11-06T23:45:00Z,26.0257,-81.7332,0.0,29.0,11111222 
NERRS,ioos:station:NOAA.NERRS:rkblhwq:1,2019-11-07T00:45:00Z,26.0257,-81.7332,0.0,28.7,11111222 
NERRS,ioos:station:NOAA.NERRS:rkblhwq:1,2019-11-07T01:45:00Z,26.0257,-81.7332,0.0,28.6,11111222 
NERRS,ioos:station:NOAA.NERRS:rkblhwq:1,2019-11-07T02:45:00Z,26.0257,-81.7332,0.0,28.5,11111222 
NERRS,ioos:station:NOAA.NERRS:rkblhwq:1,2019-11-07T03:45:00Z,26.0257,-81.7332,0.0,28.5,11111222 
NERRS,ioos:station:NOAA.NERRS:rkblhwq:1,2019-11-07T04:45:00Z,26.0257,-81.7332,0.0,28.3,11111222 
NERRS,ioos:station:NOAA.NERRS:rkblhwq:1,2019-11-07T05:45:00Z,26.0257,-81.7332,0.0,28.0,11111222 
NERRS,ioos:station:NOAA.NERRS:rkblhwq:1,2019-11-07T06:45:00Z,26.0257,-81.7332,0.0,28.0,11111222 
NERRS,ioos:station:NOAA.NERRS:rkblhwq:1,2019-11-07T07:45:00Z,26.0257,-81.7332,0.0,27.9,11111222 
NERRS,ioos:station:NOAA.NERRS:rkblhwq:1,2019-11-07T08:45:00Z,26.0257,-81.7332,0.0,27.7,11111222 
NERRS,ioos:station:NOAA.NERRS:rkblhwq:1,2019-11-07T09:45:00Z,26.0257,-81.7332,0.0,27.7,11111222 
NERRS,ioos:station:NOAA.NERRS:rkblhwq:1,2019-11-07T10:45:00Z,26.0257,-81.7332,0.0,27.6,11111222 
NERRS,ioos:station:NOAA.NERRS:rkblhwq:1,2019-11-07T11:45:00Z,26.0257,-81.7332,0.0,27.5,11111222 
NERRS,ioos:station:NOAA.NERRS:rkblhwq:1,2019-11-07T12:45:00Z,26.0257,-81.7332,0.0,27.4,11111222 
NERRS,ioos:station:NOAA.NERRS:rkblhwq:1,2019-11-07T13:45:00Z,26.0257,-81.7332,0.0,27.5,11111222 
NERRS,ioos:station:NOAA.NERRS:rkblhwq:1,2019-11-07T14:45:00Z,26.0257,-81.7332,0.0,27.6,11111222 
NERRS,ioos:station:NOAA.NERRS:rkblhwq:1,2019-11-07T15:45:00Z,26.0257,-81.7332,0.0,27.7,11111222 
NERRS,ioos:station:NOAA.NERRS:rkblhwq:1,2019-11-07T16:45:00Z,26.0257,-81.7332,0.0,28.0,11111222 
NERRS,ioos:station:NOAA.NERRS:rkblhwq:1,2019-11-07T17:45:00Z,26.0257,-81.7332,0.0,28.2,11111222 
NERRS,ioos:station:NOAA.NERRS:rkblhwq:1,2019-11-07T18:45:00Z,26.0257,-81.7332,0.0,28.6,11111222 
NERRS,ioos:station:NOAA.NERRS:rkblhwq:1,2019-11-07T19:45:00Z,26.0257,-81.7332,0.0,29.0,11111222 
NERRS,ioos:station:NOAA.NERRS:rkblhwq:1,2019-11-07T20:45:00Z,26.0257,-81.7332,0.0,29.2,11111222 
NERRS,ioos:station:NOAA.NERRS:rkblhwq:1,2019-11-07T21:45:00Z,26.0257,-81.7332,0.0,29.2,11111222 
NERRS,ioos:station:NOAA.NERRS:rkblhwq:1,2019-11-07T22:45:00Z,26.0257,-81.7332,0.0,28.9,11111222 
NERRS,ioos:station:NOAA.NERRS:rkblhwq:1,2019-11-07T23:45:00Z,26.0257,-81.7332,0.0,28.7,11111222 
NERRS,ioos:station:NOAA.NERRS:rkblhwq:1,2019-11-08T00:45:00Z,26.0257,-81.7332,0.0,28.7,11111222 
NERRS,ioos:station:NOAA.NERRS:rkblhwq:1,2019-11-08T01:45:00Z,26.0257,-81.7332,0.0,28.6,11111222 
NERRS,ioos:station:NOAA.NERRS:rkblhwq:1,2019-11-08T02:45:00Z,26.0257,-81.7332,0.0,28.5,11111222 
NERRS,ioos:station:NOAA.NERRS:rkblhwq:1,2019-11-08T03:45:00Z,26.0257,-81.7332,0.0,28.4,11111222 
NERRS,ioos:station:NOAA.NERRS:rkblhwq:1,2019-11-08T04:45:00Z,26.0257,-81.7332,0.0,28.4,11111222 
NERRS,ioos:station:NOAA.NERRS:rkblhwq:1,2019-11-08T05:45:00Z,26.0257,-81.7332,0.0,28.4,11111222 
NERRS,ioos:station:NOAA.NERRS:rkblhwq:1,2019-11-08T06:45:00Z,26.0257,-81.7332,0.0,28.4,11111222 
NERRS,ioos:station:NOAA.NERRS:rkblhwq:1,2019-11-08T07:45:00Z,26.0257,-81.7332,0.0,28.3,11111222 
NERRS,ioos:station:NOAA.NERRS:rkblhwq:1,2019-11-08T08:45:00Z,26.0257,-81.7332,0.0,28.0,11111222 
NERRS,ioos:station:NOAA.NERRS:rkblhwq:1,2019-11-08T09:45:00Z,26.0257,-81.7332,0.0,28.2,11111222 
NERRS,ioos:station:NOAA.NERRS:rkblhwq:1,2019-11-08T10:45:00Z,26.0257,-81.7332,0.0,27.9,11111222 
NERRS,ioos:station:NOAA.NERRS:rkblhwq:1,2019-11-08T11:45:00Z,26.0257,-81.7332,0.0,27.6,11111222 
NERRS,ioos:station:NOAA.NERRS:rkblhwq:1,2019-11-08T12:45:00Z,26.0257,-81.7332,0.0,27.6,11111222 
NERRS,ioos:station:NOAA.NERRS:rkblhwq:1,2019-11-08T13:45:00Z,26.0257,-81.7332,0.0,27.6,11111222 
NERRS,ioos:station:NOAA.NERRS:rkblhwq:1,2019-11-08T14:45:00Z,26.0257,-81.7332,0.0,27.8,11111222 
NERRS,ioos:station:NOAA.NERRS:rkblhwq:1,2019-11-08T15:45:00Z,26.0257,-81.7332,0.0,27.9,11111222 
NERRS,ioos:station:NOAA.NERRS:rkblhwq:1,2019-11-08T16:45:00Z,26.0257,-81.7332,0.0,28.1,11111222 
NERRS,ioos:station:NOAA.NERRS:rkblhwq:1,2019-11-08T17:45:00Z,26.0257,-81.7332,0.0,28.1,11111222 
NERRS,ioos:station:NOAA.NERRS:rkblhwq:1,2019-11-08T18:45:00Z,26.0257,-81.7332,0.0,28.2,11111222 
NERRS,ioos:station:NOAA.NERRS:rkblhwq:1,2019-11-08T19:45:00Z,26.0257,-81.7332,0.0,28.2,11111222 
NERRS,ioos:station:NOAA.NERRS:rkblhwq:1,2019-11-08T20:45:00Z,26.0257,-81.7332,0.0,28.5,11111222 
NERRS,ioos:station:NOAA.NERRS:rkblhwq:1,2019-11-08T21:45:00Z,26.0257,-81.7332,0.0,28.4,11111222 
NERRS,ioos:station:NOAA.NERRS:rkblhwq:1,2019-11-08T22:45:00Z,26.0257,-81.7332,0.0,28.5,11111222 
NERRS,ioos:station:NOAA.NERRS:rkblhwq:1,2019-11-08T23:45:00Z,26.0257,-81.7332,0.0,28.8,11111222 
NERRS,ioos:station:NOAA.NERRS:rkblhwq:1,2019-11-09T00:45:00Z,26.0257,-81.7332,0.0,28.6,11111222 
NERRS,ioos:station:NOAA.NERRS:rkblhwq:1,2019-11-09T01:45:00Z,26.0257,-81.7332,0.0,28.5,11111222 
NERRS,ioos:station:NOAA.NERRS:rkblhwq:1,2019-11-09T02:45:00Z,26.0257,-81.7332,0.0,28.4,11111222 
NERRS,ioos:station:NOAA.NERRS:rkblhwq:1,2019-11-09T03:45:00Z,26.0257,-81.7332,0.0,28.3,11111222 
NERRS,ioos:station:NOAA.NERRS:rkblhwq:1,2019-11-09T04:45:00Z,26.0257,-81.7332,0.0,28.2,11111222 
NERRS,ioos:station:NOAA.NERRS:rkblhwq:1,2019-11-09T05:45:00Z,26.0257,-81.7332,0.0,28.1,11111222 
NERRS,ioos:station:NOAA.NERRS:rkblhwq:1,2019-11-09T06:45:00Z,26.0257,-81.7332,0.0,27.8,11111222 
NERRS,ioos:station:NOAA.NERRS:rkblhwq:1,2019-11-09T07:45:00Z,26.0257,-81.7332,0.0,27.6,11111222 
NERRS,ioos:station:NOAA.NERRS:rkblhwq:1,2019-11-09T08:45:00Z,26.0257,-81.7332,0.0,27.4,11111222 
NERRS,ioos:station:NOAA.NERRS:rkblhwq:1,2019-11-09T09:45:00Z,26.0257,-81.7332,0.0,27.2,11111222 
NERRS,ioos:station:NOAA.NERRS:rkblhwq:1,2019-11-09T10:45:00Z,26.0257,-81.7332,0.0,26.9,11111222 
NERRS,ioos:station:NOAA.NERRS:rkblhwq:1,2019-11-09T11:45:00Z,26.0257,-81.7332,0.0,27.0,11111222 
NERRS,ioos:station:NOAA.NERRS:rkblhwq:1,2019-11-09T12:45:00Z,26.0257,-81.7332,0.0,26.7,11111222 
NERRS,ioos:station:NOAA.NERRS:rkblhwq:1,2019-11-09T13:45:00Z,26.0257,-81.7332,0.0,26.6,11111222 
NERRS,ioos:station:NOAA.NERRS:rkblhwq:1,2019-11-09T14:45:00Z,26.0257,-81.7332,0.0,26.6,11111222 
NERRS,ioos:station:NOAA.NERRS:rkblhwq:1,2019-11-09T15:45:00Z,26.0257,-81.7332,0.0,26.6,11111222 
NERRS,ioos:station:NOAA.NERRS:rkblhwq:1,2019-11-09T16:45:00Z,26.0257,-81.7332,0.0,26.6,11111222 
NERRS,ioos:station:NOAA.NERRS:rkblhwq:1,2019-11-09T17:45:00Z,26.0257,-81.7332,0.0,26.3,11111222 
NERRS,ioos:station:NOAA.NERRS:rkblhwq:1,2019-11-09T18:45:00Z,26.0257,-81.7332,0.0,26.2,11111222 
NERRS,ioos:station:NOAA.NERRS:rkblhwq:1,2019-11-09T19:45:00Z,26.0257,-81.7332,0.0,26.3,11111222 
NERRS,ioos:station:NOAA.NERRS:rkblhwq:1,2019-11-09T20:45:00Z,26.0257,-81.7332,0.0,26.3,11111222 
NERRS,ioos:station:NOAA.NERRS:rkblhwq:1,2019-11-09T21:45:00Z,26.0257,-81.7332,0.0,26.2,11111222 
NERRS,ioos:station:NOAA.NERRS:rkblhwq:1,2019-11-09T22:45:00Z,26.0257,-81.7332,0.0,26.0,11111222 
NERRS,ioos:station:NOAA.NERRS:rkblhwq:1,2019-11-09T23:45:00Z,26.0257,-81.7332,0.0,26.1,11111222 
NERRS,ioos:station:NOAA.NERRS:rkblhwq:1,2019-11-10T00:45:00Z,26.0257,-81.7332,0.0,25.9,11111222 
NERRS,ioos:station:NOAA.NERRS:rkblhwq:1,2019-11-10T01:45:00Z,26.0257,-81.7332,0.0,25.8,11111222 
NERRS,ioos:station:NOAA.NERRS:rkblhwq:1,2019-11-10T02:45:00Z,26.0257,-81.7332,0.0,25.8,11111222 
NERRS,ioos:station:NOAA.NERRS:rkblhwq:1,2019-11-10T03:45:00Z,26.0257,-81.7332,0.0,25.7,11111222 
NERRS,ioos:station:NOAA.NERRS:rkblhwq:1,2019-11-10T04:45:00Z,26.0257,-81.7332,0.0,25.6,11111222 
NERRS,ioos:station:NOAA.NERRS:rkblhwq:1,2019-11-10T05:45:00Z,26.0257,-81.7332,0.0,25.6,11111222 
NERRS,ioos:station:NOAA.NERRS:rkblhwq:1,2019-11-10T06:45:00Z,26.0257,-81.7332,0.0,25.0,11111222 
NERRS,ioos:station:NOAA.NERRS:rkblhwq:1,2019-11-10T07:45:00Z,26.0257,-81.7332,0.0,25.1,11111222 
NERRS,ioos:station:NOAA.NERRS:rkblhwq:1,2019-11-10T08:45:00Z,26.0257,-81.7332,0.0,24.6,11111222 
NERRS,ioos:station:NOAA.NERRS:rkblhwq:1,2019-11-10T09:45:00Z,26.0257,-81.7332,0.0,24.4,11111222 
NERRS,ioos:station:NOAA.NERRS:rkblhwq:1,2019-11-10T10:45:00Z,26.0257,-81.7332,0.0,24.2,11111222 
NERRS,ioos:station:NOAA.NERRS:rkblhwq:1,2019-11-10T11:45:00Z,26.0257,-81.7332,0.0,24.0,11111222 
NERRS,ioos:station:NOAA.NERRS:rkblhwq:1,2019-11-10T12:45:00Z,26.0257,-81.7332,0.0,24.1,11111222 
NERRS,ioos:station:NOAA.NERRS:rkblhwq:1,2019-11-10T13:45:00Z,26.0257,-81.7332,0.0,24.0,11111222 
NERRS,ioos:station:NOAA.NERRS:rkblhwq:1,2019-11-10T14:45:00Z,26.0257,-81.7332,0.0,24.3,11111222 
NERRS,ioos:station:NOAA.NERRS:rkblhwq:1,2019-11-10T15:45:00Z,26.0257,-81.7332,0.0,24.4,11111222 
NERRS,ioos:station:NOAA.NERRS:rkblhwq:1,2019-11-10T16:45:00Z,26.0257,-81.7332,0.0,24.7,11111222 
NERRS,ioos:station:NOAA.NERRS:rkblhwq:1,2019-11-10T17:45:00Z,26.0257,-81.7332,0.0,24.9,11111222 
NERRS,ioos:station:NOAA.NERRS:rkblhwq:1,2019-11-10T18:45:00Z,26.0257,-81.7332,0.0,25.1,11111222 
NERRS,ioos:station:NOAA.NERRS:rkblhwq:1,2019-11-10T19:45:00Z,26.0257,-81.7332,0.0,25.2,11111222 
NERRS,ioos:station:NOAA.NERRS:rkblhwq:1,2019-11-10T20:45:00Z,26.0257,-81.7332,0.0,25.3,11111222 
NERRS,ioos:station:NOAA.NERRS:rkblhwq:1,2019-11-10T21:45:00Z,26.0257,-81.7332,0.0,25.3,11111222 
NERRS,ioos:station:NOAA.NERRS:rkblhwq:1,2019-11-10T22:45:00Z,26.0257,-81.7332,0.0,25.1,11111222 
NERRS,ioos:station:NOAA.NERRS:rkblhwq:1,2019-11-10T23:45:00Z,26.0257,-81.7332,0.0,25.1,11111222 
NERRS,ioos:station:NOAA.NERRS:rkblhwq:1,2019-11-11T00:45:00Z,26.0257,-81.7332,0.0,24.9,11111222 
NERRS,ioos:station:NOAA.NERRS:rkblhwq:1,2019-11-11T01:45:00Z,26.0257,-81.7332,0.0,24.8,11111222 
NERRS,ioos:station:NOAA.NERRS:rkblhwq:1,2019-11-11T02:45:00Z,26.0257,-81.7332,0.0,24.8,11111222 
NERRS,ioos:station:NOAA.NERRS:rkblhwq:1,2019-11-11T03:45:00Z,26.0257,-81.7332,0.0,24.8,11111222 
NERRS,ioos:station:NOAA.NERRS:rkblhwq:1,2019-11-11T04:45:00Z,26.0257,-81.7332,0.0,24.8,11111222 
NERRS,ioos:station:NOAA.NERRS:rkblhwq:1,2019-11-11T05:45:00Z,26.0257,-81.7332,0.0,24.8,11111222 
NERRS,ioos:station:NOAA.NERRS:rkblhwq:1,2019-11-11T06:45:00Z,26.0257,-81.7332,0.0,24.1,11111222 
NERRS,ioos:station:NOAA.NERRS:rkblhwq:1,2019-11-11T07:45:00Z,26.0257,-81.7332,0.0,24.3,11111222 
NERRS,ioos:station:NOAA.NERRS:rkblhwq:1,2019-11-11T08:45:00Z,26.0257,-81.7332,0.0,24.1,11111222 
NERRS,ioos:station:NOAA.NERRS:rkblhwq:1,2019-11-11T09:45:00Z,26.0257,-81.7332,0.0,23.7,11111222 
NERRS,ioos:station:NOAA.NERRS:rkblhwq:1,2019-11-11T10:45:00Z,26.0257,-81.7332,0.0,23.5,11111222 
NERRS,ioos:station:NOAA.NERRS:rkblhwq:1,2019-11-11T11:45:00Z,26.0257,-81.7332,0.0,23.4,11111222 
NERRS,ioos:station:NOAA.NERRS:rkblhwq:1,2019-11-11T12:45:00Z,26.0257,-81.7332,0.0,23.5,11111222 
NERRS,ioos:station:NOAA.NERRS:rkblhwq:1,2019-11-11T13:45:00Z,26.0257,-81.7332,0.0,23.6,11111222 
NERRS,ioos:station:NOAA.NERRS:rkblhwq:1,2019-11-11T14:45:00Z,26.0257,-81.7332,0.0,23.8,11111222 
NERRS,ioos:station:NOAA.NERRS:rkblhwq:1,2019-11-11T15:45:00Z,26.0257,-81.7332,0.0,24.1,11111222 
NERRS,ioos:station:NOAA.NERRS:rkblhwq:1,2019-11-11T16:45:00Z,26.0257,-81.7332,0.0,24.4,11111222 
NERRS,ioos:station:NOAA.NERRS:rkblhwq:1,2019-11-11T17:45:00Z,26.0257,-81.7332,0.0,24.6,11111222 
NERRS,ioos:station:NOAA.NERRS:rkblhwq:1,2019-11-11T18:45:00Z,26.0257,-81.7332,0.0,24.7,11111222 
NERRS,ioos:station:NOAA.NERRS:rkblhwq:1,2019-11-11T19:45:00Z,26.0257,-81.7332,0.0,24.8,11111222 
NERRS,ioos:station:NOAA.NERRS:rkblhwq:1,2019-11-11T20:45:00Z,26.0257,-81.7332,0.0,25.0,11111222 
NERRS,ioos:station:NOAA.NERRS:rkblhwq:1,2019-11-11T21:45:00Z,26.0257,-81.7332,0.0,24.9,11111222 
NERRS,ioos:station:NOAA.NERRS:rkblhwq:1,2019-11-11T22:45:00Z,26.0257,-81.7332,0.0,24.9,11111222 
NERRS,ioos:station:NOAA.NERRS:rkblhwq:1,2019-11-11T23:45:00Z,26.0257,-81.7332,0.0,24.9,11111222 
NERRS,ioos:station:NOAA.NERRS:rkblhwq:1,2019-11-12T00:45:00Z,26.0257,-81.7332,0.0,24.9,11111222 
NERRS,ioos:station:NOAA.NERRS:rkblhwq:1,2019-11-12T01:45:00Z,26.0257,-81.7332,0.0,24.8,11111222 
NERRS,ioos:station:NOAA.NERRS:rkblhwq:1,2019-11-12T02:45:00Z,26.0257,-81.7332,0.0,24.8,11111222 
NERRS,ioos:station:NOAA.NERRS:rkblhwq:1,2019-11-12T03:45:00Z,26.0257,-81.7332,0.0,24.8,11111222 
NERRS,ioos:station:NOAA.NERRS:rkblhwq:1,2019-11-12T04:45:00Z,26.0257,-81.7332,0.0,24.8,11111222 
NERRS,ioos:station:NOAA.NERRS:rkblhwq:1,2019-11-12T05:45:00Z,26.0257,-81.7332,0.0,25.0,11111222 
NERRS,ioos:station:NOAA.NERRS:rkblhwq:1,2019-11-12T06:45:00Z,26.0257,-81.7332,0.0,24.6,11111222 
NERRS,ioos:station:NOAA.NERRS:rkblhwq:1,2019-11-12T07:45:00Z,26.0257,-81.7332,0.0,24.9,11111222 
NERRS,ioos:station:NOAA.NERRS:rkblhwq:1,2019-11-12T08:45:00Z,26.0257,-81.7332,0.0,24.4,11111222 
NERRS,ioos:station:NOAA.NERRS:rkblhwq:1,2019-11-12T09:45:00Z,26.0257,-81.7332,0.0,24.0,11111222 
NERRS,ioos:station:NOAA.NERRS:rkblhwq:1,2019-11-12T10:45:00Z,26.0257,-81.7332,0.0,23.9,11111222 
NERRS,ioos:station:NOAA.NERRS:rkblhwq:1,2019-11-12T11:45:00Z,26.0257,-81.7332,0.0,23.8,11111222 
NERRS,ioos:station:NOAA.NERRS:rkblhwq:1,2019-11-12T12:45:00Z,26.0257,-81.7332,0.0,23.6,11111222 
NERRS,ioos:station:NOAA.NERRS:rkblhwq:1,2019-11-12T13:45:00Z,26.0257,-81.7332,0.0,24.1,11111222 
NERRS,ioos:station:NOAA.NERRS:rkblhwq:1,2019-11-12T14:45:00Z,26.0257,-81.7332,0.0,24.3,11111222 
NERRS,ioos:station:NOAA.NERRS:rkblhwq:1,2019-11-12T15:45:00Z,26.0257,-81.7332,0.0,24.6,11111222 
NERRS,ioos:station:NOAA.NERRS:rkblhwq:1,2019-11-12T16:45:00Z,26.0257,-81.7332,0.0,24.9,11111222 
NERRS,ioos:station:NOAA.NERRS:rkblhwq:1,2019-11-12T17:45:00Z,26.0257,-81.7332,0.0,25.2,11111222 
NERRS,ioos:station:NOAA.NERRS:rkblhwq:1,2019-11-12T18:45:00Z,26.0257,-81.7332,0.0,25.4,11111222 
NERRS,ioos:station:NOAA.NERRS:rkblhwq:1,2019-11-12T19:45:00Z,26.0257,-81.7332,0.0,25.5,11111222 
NERRS,ioos:station:NOAA.NERRS:rkblhwq:1,2019-11-12T20:45:00Z,26.0257,-81.7332,0.0,25.4,11111222 
NERRS,ioos:station:NOAA.NERRS:rkblhwq:1,2019-11-12T21:45:00Z,26.0257,-81.7332,0.0,25.6,11111222 
NERRS,ioos:station:NOAA.NERRS:rkblhwq:1,2019-11-12T22:45:00Z,26.0257,-81.7332,0.0,25.6,11111222 
NERRS,ioos:station:NOAA.NERRS:rkblhwq:1,2019-11-12T23:45:00Z,26.0257,-81.7332,0.0,25.6,11111222 
NERRS,ioos:station:NOAA.NERRS:rkblhwq:1,2019-11-13T00:45:00Z,26.0257,-81.7332,0.0,25.4,11111222 
NERRS,ioos:station:NOAA.NERRS:rkblhwq:1,2019-11-13T01:45:00Z,26.0257,-81.7332,0.0,25.5,11111222 
NERRS,ioos:station:NOAA.NERRS:rkblhwq:1,2019-11-13T02:45:00Z,26.0257,-81.7332,0.0,25.5,11111222 
NERRS,ioos:station:NOAA.NERRS:rkblhwq:1,2019-11-13T03:45:00Z,26.0257,-81.7332,0.0,25.5,11111222 
NERRS,ioos:station:NOAA.NERRS:rkblhwq:1,2019-11-13T04:45:00Z,26.0257,-81.7332,0.0,25.5,11111222 
NERRS,ioos:station:NOAA.NERRS:rkblhwq:1,2019-11-13T05:45:00Z,26.0257,-81.7332,0.0,25.6,11111222 
NERRS,ioos:station:NOAA.NERRS:rkblhwq:1,2019-11-13T06:45:00Z,26.0257,-81.7332,0.0,25.7,11111222 
NERRS,ioos:station:NOAA.NERRS:rkblhwq:1,2019-11-13T07:45:00Z,26.0257,-81.7332,0.0,25.5,11111222 
NERRS,ioos:station:NOAA.NERRS:rkblhwq:1,2019-11-13T08:45:00Z,26.0257,-81.7332,0.0,25.6,11111222 
NERRS,ioos:station:NOAA.NERRS:rkblhwq:1,2019-11-13T09:45:00Z,26.0257,-81.7332,0.0,25.4,11111222 
NERRS,ioos:station:NOAA.NERRS:rkblhwq:1,2019-11-13T10:45:00Z,26.0257,-81.7332,0.0,25.1,11111222 
NERRS,ioos:station:NOAA.NERRS:rkblhwq:1,2019-11-13T11:45:00Z,26.0257,-81.7332,0.0,24.7,11111222 
NERRS,ioos:station:NOAA.NERRS:rkblhwq:1,2019-11-13T12:45:00Z,26.0257,-81.7332,0.0,24.6,11111222 
NERRS,ioos:station:NOAA.NERRS:rkblhwq:1,2019-11-13T13:45:00Z,26.0257,-81.7332,0.0,24.5,11111222 
NERRS,ioos:station:NOAA.NERRS:rkblhwq:1,2019-11-13T14:45:00Z,26.0257,-81.7332,0.0,24.7,11111222 
NERRS,ioos:station:NOAA.NERRS:rkblhwq:1,2019-11-13T15:45:00Z,26.0257,-81.7332,0.0,24.7,11111222 
NERRS,ioos:station:NOAA.NERRS:rkblhwq:1,2019-11-13T16:45:00Z,26.0257,-81.7332,0.0,24.9,11111222 
NERRS,ioos:station:NOAA.NERRS:rkblhwq:1,2019-11-13T17:45:00Z,26.0257,-81.7332,0.0,25.1,11111222 
NERRS,ioos:station:NOAA.NERRS:rkblhwq:1,2019-11-13T18:45:00Z,26.0257,-81.7332,0.0,25.3,11111222 
NERRS,ioos:station:NOAA.NERRS:rkblhwq:1,2019-11-13T19:45:00Z,26.0257,-81.7332,0.0,25.4,11111222 
NERRS,ioos:station:NOAA.NERRS:rkblhwq:1,2019-11-13T20:45:00Z,26.0257,-81.7332,0.0,25.3,11111222 
NERRS,ioos:station:NOAA.NERRS:rkblhwq:1,2019-11-13T21:45:00Z,26.0257,-81.7332,0.0,25.2,11111222 
NERRS,ioos:station:NOAA.NERRS:rkblhwq:1,2019-11-13T22:45:00Z,26.0257,-81.7332,0.0,25.1,11111222 
NERRS,ioos:station:NOAA.NERRS:rkblhwq:1,2019-11-13T23:45:00Z,26.0257,-81.7332,0.0,25.0,11111222 
NERRS,ioos:station:NOAA.NERRS:rkblhwq:1,2019-11-14T00:45:00Z,26.0257,-81.7332,0.0,24.9,11111222 
NERRS,ioos:station:NOAA.NERRS:rkblhwq:1,2019-11-14T01:45:00Z,26.0257,-81.7332,0.0,24.8,11111222 
NERRS,ioos:station:NOAA.NERRS:rkblhwq:1,2019-11-14T02:45:00Z,26.0257,-81.7332,0.0,24.7,11111222 
NERRS,ioos:station:NOAA.NERRS:rkblhwq:1,2019-11-14T03:45:00Z,26.0257,-81.7332,0.0,24.5,11111222 
NERRS,ioos:station:NOAA.NERRS:rkblhwq:1,2019-11-14T04:45:00Z,26.0257,-81.7332,0.0,24.5,11111222 
NERRS,ioos:station:NOAA.NERRS:rkblhwq:1,2019-11-14T05:45:00Z,26.0257,-81.7332,0.0,24.5,11111222 
NERRS,ioos:station:NOAA.NERRS:rkblhwq:1,2019-11-14T06:45:00Z,26.0257,-81.7332,0.0,24.5,11111222 
NERRS,ioos:station:NOAA.NERRS:rkblhwq:1,2019-11-14T07:45:00Z,26.0257,-81.7332,0.0,24.5,11111222 
NERRS,ioos:station:NOAA.NERRS:rkblhwq:1,2019-11-14T08:45:00Z,26.0257,-81.7332,0.0,24.0,11111222 
NERRS,ioos:station:NOAA.NERRS:rkblhwq:1,2019-11-14T09:45:00Z,26.0257,-81.7332,0.0,23.8,11111222 
NERRS,ioos:station:NOAA.NERRS:rkblhwq:1,2019-11-14T10:45:00Z,26.0257,-81.7332,0.0,23.9,11111222 
NERRS,ioos:station:NOAA.NERRS:rkblhwq:1,2019-11-14T11:45:00Z,26.0257,-81.7332,0.0,23.6,11111222 
NERRS,ioos:station:NOAA.NERRS:rkblhwq:1,2019-11-14T12:45:00Z,26.0257,-81.7332,0.0,23.5,11111222 
NERRS,ioos:station:NOAA.NERRS:rkblhwq:1,2019-11-14T13:45:00Z,26.0257,-81.7332,0.0,23.6,11111222 
NERRS,ioos:station:NOAA.NERRS:rkblhwq:1,2019-11-14T14:45:00Z,26.0257,-81.7332,0.0,23.9,11111222 
NERRS,ioos:station:NOAA.NERRS:rkblhwq:1,2019-11-14T15:45:00Z,26.0257,-81.7332,0.0,24.3,11111222 
NERRS,ioos:station:NOAA.NERRS:rkblhwq:1,2019-11-14T16:45:00Z,26.0257,-81.7332,0.0,24.5,11111222 
NERRS,ioos:station:NOAA.NERRS:rkblhwq:1,2019-11-14T17:45:00Z,26.0257,-81.7332,0.0,24.8,11111222 
NERRS,ioos:station:NOAA.NERRS:rkblhwq:1,2019-11-14T18:45:00Z,26.0257,-81.7332,0.0,25.0,11111222 
NERRS,ioos:station:NOAA.NERRS:rkblhwq:1,2019-11-14T20:45:00Z,26.0257,-81.7332,0.0,25.1,11111222 
NERRS,ioos:station:NOAA.NERRS:rkblhwq:1,2019-11-14T21:45:00Z,26.0257,-81.7332,0.0,25.1,11111222 
NERRS,ioos:station:NOAA.NERRS:rkblhwq:1,2019-11-14T22:45:00Z,26.0257,-81.7332,0.0,25.0,11111222 
NERRS,ioos:station:NOAA.NERRS:rkblhwq:1,2019-11-14T23:45:00Z,26.0257,-81.7332,0.0,25.0,11111222 
NERRS,ioos:station:NOAA.NERRS:rkblhwq:1,2019-11-15T00:45:00Z,26.0257,-81.7332,0.0,25.0,11111222 
NERRS,ioos:station:NOAA.NERRS:rkblhwq:1,2019-11-15T01:45:00Z,26.0257,-81.7332,0.0,25.0,11111222 
NERRS,ioos:station:NOAA.NERRS:rkblhwq:1,2019-11-15T02:45:00Z,26.0257,-81.7332,0.0,25.0,11111222 
NERRS,ioos:station:NOAA.NERRS:rkblhwq:1,2019-11-15T03:45:00Z,26.0257,-81.7332,0.0,24.9,11111222 
NERRS,ioos:station:NOAA.NERRS:rkblhwq:1,2019-11-15T04:45:00Z,26.0257,-81.7332,0.0,24.9,11111222 
NERRS,ioos:station:NOAA.NERRS:rkblhwq:1,2019-11-15T05:45:00Z,26.0257,-81.7332,0.0,25.0,11111222 
NERRS,ioos:station:NOAA.NERRS:rkblhwq:1,2019-11-15T06:45:00Z,26.0257,-81.7332,0.0,25.0,11111222 
NERRS,ioos:station:NOAA.NERRS:rkblhwq:1,2019-11-15T07:45:00Z,26.0257,-81.7332,0.0,25.1,11111222 
NERRS,ioos:station:NOAA.NERRS:rkblhwq:1,2019-11-15T08:45:00Z,26.0257,-81.7332,0.0,25.0,11111222 
NERRS,ioos:station:NOAA.NERRS:rkblhwq:1,2019-11-15T09:45:00Z,26.0257,-81.7332,0.0,25.0,11111222 
NERRS,ioos:station:NOAA.NERRS:rkblhwq:1,2019-11-15T10:45:00Z,26.0257,-81.7332,0.0,24.7,11111222 
NERRS,ioos:station:NOAA.NERRS:rkblhwq:1,2019-11-15T11:45:00Z,26.0257,-81.7332,0.0,24.5,11111222 
NERRS,ioos:station:NOAA.NERRS:rkblhwq:1,2019-11-15T12:45:00Z,26.0257,-81.7332,0.0,24.6,11111222 
NERRS,ioos:station:NOAA.NERRS:rkblhwq:1,2019-11-15T13:45:00Z,26.0257,-81.7332,0.0,24.6,11111222 
NERRS,ioos:station:NOAA.NERRS:rkblhwq:1,2019-11-15T14:45:00Z,26.0257,-81.7332,0.0,24.7,11111222 
NERRS,ioos:station:NOAA.NERRS:rkblhwq:1,2019-11-15T15:45:00Z,26.0257,-81.7332,0.0,24.9,11111222 
NERRS,ioos:station:NOAA.NERRS:rkblhwq:1,2019-11-15T16:45:00Z,26.0257,-81.7332,0.0,24.9,11111222 
NERRS,ioos:station:NOAA.NERRS:rkblhwq:1,2019-11-15T17:45:00Z,26.0257,-81.7332,0.0,24.9,11111222 
NERRS,ioos:station:NOAA.NERRS:rkblhwq:1,2019-11-15T18:45:00Z,26.0257,-81.7332,0.0,24.9,11111222 
NERRS,ioos:station:NOAA.NERRS:rkblhwq:1,2019-11-15T19:45:00Z,26.0257,-81.7332,0.0,24.9,11111222 
NERRS,ioos:station:NOAA.NERRS:rkblhwq:1,2019-11-15T21:45:00Z,26.0257,-81.7332,0.0,25.0,11111222 